This is the latest recevied weather packets stored in our database for station/object SM0UQT-10. If no packets are shown the sender has not sent any weather packets the latest 10 day(s).
| Time | Temp. | Humidity | Pressure | Rain* | Wind** | Luminosity | Snow |
|---|---|---|---|---|---|---|---|
| 1777729289 | 21.67° C | 31% | 1014.7 hPa | - | - | - | - |
| 1777728833 | 21.67° C | 31% | 1014.7 hPa | - | - | - | - |
| 1777728194 | 21.11° C | 32% | 1014.9 hPa | - | - | - | - |
| 1777728063 | 21.11° C | 32% | 1014.9 hPa | - | - | - | - |
| 1777727633 | 21.11° C | 32% | 1014.9 hPa | - | - | - | - |
| 1777726432 | 20.56° C | 32% | 1015.1 hPa | - | - | - | - |
| 1777725267 | 21.11° C | 31% | 1015.3 hPa | - | - | - | - |
| 1777725232 | 21.11° C | 31% | 1015.3 hPa | - | - | - | - |
| 1777724067 | 22.22° C | 32% | 1015.4 hPa | - | - | - | - |
| 1777724031 | 22.22° C | 32% | 1015.4 hPa | - | - | - | - |
| 1777723011 | 22.22° C | 32% | 1015.6 hPa | - | - | - | - |
| 1777722831 | 22.22° C | 32% | 1015.6 hPa | - | - | - | - |
| 1777721923 | 22.22° C | 32% | 1015.9 hPa | - | - | - | - |
| 1777721630 | 22.22° C | 32% | 1015.9 hPa | - | - | - | - |
| 1777720881 | 22.22° C | 33% | 1016.4 hPa | - | - | - | - |
| 1777720430 | 22.22° C | 33% | 1016.4 hPa | - | - | - | - |
| 1777719367 | 22.22° C | 33% | 1016.6 hPa | - | - | - | - |
| 1777719230 | 22.22° C | 33% | 1016.6 hPa | - | - | - | - |
| 1777718061 | 22.22° C | 32% | 1016.8 hPa | - | - | - | - |
| 1777718029 | 22.22° C | 32% | 1016.8 hPa | - | - | - | - |
| 1777718004 | 18.33° C | 34% | 1017.2 hPa | - | - | - | - |
| 1777716828 | 18.33° C | 34% | 1017.2 hPa | - | - | - | - |
| 1777715628 | 22.22° C | 32% | 1017.4 hPa | - | - | - | - |
| 1777715322 | 22.22° C | 32% | 1017.4 hPa | - | - | - | - |
| 1777714432 | 22.22° C | 32% | 1017.4 hPa | - | - | - | - |
* Rain since midnight (hover to see other rain measurements)
** Current wind speed in m/s (hover to see current wind gust speed)